Flag for France Weather past 2 weeks in Marseille, France

Now
77 °F

Passing clouds.


Feels Like: 79 °F
Forecast: 68 / 85 °F
Wind: 32 mph from North

Location: Marseille / Marignane

Current Time: Jul 22, 2014 at 12:17:27 PM

Latest Report: Jul 22, 2014 at 11:30 AM


Visibility: N/A

Pressure: 29.83 "Hg

Humidity: 51%

Dew point: 57 °F

Location of MarseilleLocation

Historic Weather in Marseille — Graph

°F

Marseille temperature yesterday

Maximum temperature yesterday: 82 °F (at 5:00 PM)
Minimum temperature yesterday: 64 °F (at 4:30 AM)
Average temperature yesterday: 73 °F

Past Weeks' High & Low Weather Summary

 TemperatureHumidityPressure
High93 °F (Jul 19, 3:00 PM)88% (Jul 20, 9:00 PM)30.09 "Hg (Jul 20, 9:00 PM)
Low61 °F (Jul 10, 5:30 AM)21% (Jul 19, 3:00 PM)29.77 "Hg (Jul 20, 2:00 PM)
Average75 °F55%29.94 "Hg
* Reported Jul 7 11:00 AM — Jul 22 11:00 AM, Marseille, Weather by CustomWeather, © 2014

Note: Actual official high and low records may vary slightly from our data, if they occured in-between our weather recording intervals... More about our weather records

Advertising

Marseille weather history for previous 24 hours

 ConditionsComfort  
Time TempWeatherWind HumidityBarometerVisibility
11:00 AM
Jul 22
79 °FPassing clouds.36 mph51%29.83 "HgN/A
10:30 AM77 °FPassing clouds.33 mph54%29.83 "HgN/A
10:00 AM77 °FPassing clouds.35 mph54%29.83 "HgN/A
9:30 AM77 °FPassing clouds.36 mph54%29.83 "HgN/A
9:00 AM75 °FPassing clouds.37 mph57%29.83 "HgN/A
8:30 AM75 °FPassing clouds.30 mph61%29.83 "HgN/A
8:00 AM73 °FPassing clouds.23 mph65%29.83 "HgN/A
7:00 AM70 °FPassing clouds.24 mph73%29.86 "HgN/A
6:30 AM70 °FPassing clouds.22 mph73%29.86 "HgN/A
6:00 AM70 °FClear.15 mph69%29.86 "Hg10 mi
5:30 AM72 °FPassing clouds.14 mph65%29.86 "HgN/A
5:00 AM70 °FClear.24 mph69%29.86 "Hg10 mi
4:30 AM70 °FClear.23 mph69%29.86 "HgN/A
4:00 AM70 °FClear.22 mph69%29.89 "HgN/A
3:30 AM70 °FClear.24 mph73%29.86 "HgN/A
3:00 AM72 °FClear.23 mph69%29.89 "HgN/A
2:30 AM72 °FClear.25 mph69%29.89 "HgN/A
2:00 AM72 °FClear.24 mph69%29.89 "HgN/A
1:30 AM72 °FClear.23 mph69%29.89 "HgN/A
1:00 AM72 °FClear.18 mph65%29.92 "Hg10 mi
12:00 AM72 °FClear.21 mph65%29.92 "Hg10 mi
11:30 PM
Jul 21
73 °FClear.21 mph61%29.92 "Hg10 mi
10:30 PM73 °FClear.28 mph61%29.89 "Hg10 mi
10:00 PM73 °FSunny.29 mph61%29.92 "Hg10 mi
9:30 PM73 °FSunny.25 mph61%29.89 "Hg10 mi
9:00 PM75 °FScattered clouds.29 mph57%29.89 "HgN/A
8:30 PM77 °FScattered clouds.29 mph54%29.89 "HgN/A
8:00 PM79 °FScattered clouds.25 mph48%29.89 "HgN/A
7:30 PM79 °FPassing clouds.28 mph48%29.89 "HgN/A
7:00 PM79 °FPassing clouds.29 mph48%29.89 "HgN/A
6:30 PM79 °FSunny.28 mph48%29.89 "Hg10 mi
6:00 PM81 °FSunny.35 mph45%29.86 "Hg10 mi
5:30 PM82 °FSunny.28 mph45%29.89 "Hg10 mi
5:00 PM82 °FScattered clouds.26 mph42%29.89 "HgN/A
4:30 PM81 °FScattered clouds.28 mph45%29.86 "HgN/A
4:00 PM81 °FScattered clouds.26 mph48%29.89 "HgN/A
3:30 PM81 °FSunny.28 mph45%29.89 "Hg10 mi
3:00 PM79 °FScattered clouds.26 mph54%29.89 "HgN/A
2:30 PM79 °FBroken clouds.25 mph48%29.89 "HgN/A
2:00 PM81 °FScattered clouds.20 mph45%29.89 "HgN/A
1:30 PM81 °FPartly sunny.23 mph45%29.89 "HgN/A
1:00 PM81 °FBroken clouds.25 mph45%29.89 "HgN/A
12:30 PM79 °FBroken clouds.22 mph51%29.92 "HgN/A
12:00 PM77 °FBroken clouds.23 mph54%29.92 "HgN/A
Weather by CustomWeather, © 2014

See weather overviewHow to use our weather pages